User: anonymous   Login
Location: Unspecified
(0.0000°N, 0.0000°E)
Time: 17:02:46
(UTC+02:00)
Language:

Cosmos 1733 Rocket - Orbit

View from above orbital plane
View from above orbital plane
View from above satellite
View from above satellite

Ground track
Ground track

The orbit data is extracted from the following two-line orbital elements,

1 16612U 86018B   16205.21457375  .00000095  00000-0  85128-5 0  9990
2 16612  82.5153 245.0619 0018391 154.3923 275.2176 14.84091974542668
Epoch (UTC): 23 July 2016 05:08:59
Eccentricity: 0.0018391
inclination: 82.5153°
perigee height: 603 km
apogee height: 629 km
right ascension of ascending node: 245.0619°
argument of perigee: 154.3923°
revolutions per day: 14.84091974
mean anomaly at epoch: 275.2176°
orbit number at epoch: 54266

The dashed part of the orbit path shows where the satellite is in the earth's shadow,  

DLR